This is the latest recevied weather packets stored in our database for station/object EA1GEC-10. If no packets are shown the sender has not sent any weather packets the latest 1 day(s).
| Time | Temp. | Humidity | Pressure | Rain* | Wind** | Luminosity | Snow |
|---|---|---|---|---|---|---|---|
| 1778061876 | 12.78° C | 66% | 1022.4 hPa | - | - | - | - |
| 1778058275 | 12.78° C | 68% | 1022.2 hPa | - | - | - | - |
| 1778055575 | 12.22° C | 70% | 1022.2 hPa | - | - | - | - |
| 1778054675 | 11.67° C | 71% | 1022.2 hPa | - | - | - | - |
| 1778053775 | 11.67° C | 72% | 1022.3 hPa | - | - | - | - |
| 1778052875 | 11.11° C | 73% | 1022.2 hPa | - | - | - | - |
| 1778051476 | 11.11° C | 74% | 1022.2 hPa | - | - | - | - |
| 1778047885 | 10.56° C | 77% | 1022.1 hPa | - | - | - | - |
| 1778046979 | 10.56° C | 78% | 1022.1 hPa | - | - | - | - |
| 1778046075 | 10.56° C | 79% | 1022 hPa | - | - | - | - |
| 1778045175 | 10.56° C | 80% | 1021.9 hPa | - | - | - | - |
| 1778044275 | 10.56° C | 82% | 1021.8 hPa | - | - | - | - |
| 1778043375 | 10.56° C | 83% | 1021.7 hPa | - | - | - | - |
| 1778042475 | 10.56° C | 82% | 1021.7 hPa | - | - | - | - |
| 1778041575 | 10.56° C | 82% | 1021.7 hPa | - | - | - | - |
| 1778040675 | 10.56° C | 82% | 1021.8 hPa | - | - | - | - |
| 1778039775 | 10.56° C | 81% | 1021.9 hPa | - | - | - | - |
| 1778038884 | 11.11° C | 82% | 1022 hPa | - | - | - | - |
| 1778036174 | 11.11° C | 81% | 1022.1 hPa | - | - | - | - |
| 1778035274 | 11.11° C | 81% | 1022.1 hPa | - | - | - | - |
| 1778034374 | 11.11° C | 81% | 1022.1 hPa | - | - | - | - |
| 1778033474 | 11.11° C | 80% | 1022.1 hPa | - | - | - | - |
| 1778032574 | 11.11° C | 80% | 1022.4 hPa | - | - | - | - |
| 1778031674 | 11.11° C | 79% | 1022.5 hPa | - | - | - | - |
| 1778030774 | 11.11° C | 79% | 1022.5 hPa | - | - | - | - |
* Rain since midnight (hover to see other rain measurements)
** Current wind speed in m/s (hover to see current wind gust speed)